Barnwell, SC

4:18 PM EST on November 15, 2019 (GMT -0500)
Barnwell County

Weather History for KBNL - September, 2019

Change the Weather History Date:

Saturday, September 7, 2019

  Actual Average (KOGB) Record (KOGB)
Temperature  
Mean Temperature 80 °F 77 °F  
Max Temperature 96 °F 87 °F 102 °F (1954)
Min Temperature 64 °F 67 °F 53 °F (1982)
Degree Days  
Heating Degree Days 0 0  
Month to date heating degree days 0  
Since 1 July heating degree days 0  
Cooling Degree Days 15 12  
Month to date cooling degree days 88  
Year to date cooling degree days 1781  
Growing Degree Days 30 (Base 50)    
Moisture  
Dew Point 64 °F    
Average Humidity 63    
Maximum Humidity 100    
Minimum Humidity 27    
Precipitation  
Precipitation 0.00 in 0.14 in 8.82 in (1948)
Month to date precipitation 1.00  
Year to date precipitation 34.31  
Sea Level Pressure  
Sea Level Pressure 29.90 in    
Wind  
Wind Speed 1 mph (West)    
Max Wind Speed 8 mph    
Max Gust Speed 14 mph    
Visibility 9 miles    
Events      
T = Trace of Precipitation, MM = Missing Value Source: NWS Daily Summary

Daily Weather History Graph

Daily Weather History Graph

Search for Another Location

Airport or City:

Astronomy

Sep. 07, 2019 Rise Set
Actual Time 7:03 AM EDT 7:43 PM EDT
Civil Twilight 6:38 AM EDT 8:08 PM EDT
Nautical Twilight 6:09 AM EDT 8:37 PM EDT
Astronomical Twilight 5:38 AM EDT 9:07 PM EDT
Moon 3:43 PM EDT (9/7) 1:08 AM EDT (9/7)
Length of Visible Light 13h 29m
Length of Day
12h 39m
Waxing Gibbous, 65% of the Moon is Illuminated
Sep 7
Waxing Gibbous
Sep 14
Full
Sep 21
Last Quarter
Sep 28
New
Oct 5
First Quarter

Hourly Weather History & Observations

Time (EDT) Temp. Heat Index Dew Point Humidity Pressure Visibility Wind Dir Wind Speed Gust Speed Precip Events Conditions
12:15 AM 73.4 °F - 69.8 °F 88% 29.87 in 10.0 mi Calm Calm - N/A   Clear
12:35 AM 73.4 °F - 69.8 °F 88% 29.88 in 10.0 mi Calm Calm - N/A   Clear
12:55 AM 73.4 °F - 68.0 °F 83% 29.88 in 10.0 mi Calm Calm - N/A   Clear
1:15 AM 71.6 °F - 68.0 °F 88% 29.88 in 10.0 mi Calm Calm - N/A   Clear
1:35 AM 71.6 °F - 68.0 °F 88% 29.88 in 10.0 mi Calm Calm - N/A   Clear
1:55 AM 71.6 °F - 68.0 °F 88% 29.89 in 10.0 mi Calm Calm - N/A   Clear
2:15 AM 69.8 °F - 68.0 °F 94% 29.88 in 10.0 mi Calm Calm - N/A   Clear
2:35 AM 69.8 °F - 68.0 °F 94% 29.88 in 10.0 mi Calm Calm - N/A   Clear
2:55 AM 69.8 °F - 68.0 °F 94% 29.88 in 4.0 mi Calm Calm - N/A   Clear
3:15 AM 68.0 °F - 66.2 °F 94% 29.87 in 9.0 mi Calm Calm - N/A   Clear
3:35 AM 68.0 °F - 66.2 °F 94% 29.88 in 9.0 mi Calm Calm - N/A   Clear
3:55 AM 68.0 °F - 66.2 °F 94% 29.88 in 3.0 mi Calm Calm - N/A   Clear
4:15 AM 68.0 °F - 66.2 °F 94% 29.87 in 3.0 mi Calm Calm - N/A   Clear
4:35 AM 68.0 °F - 66.2 °F 94% 29.88 in 9.0 mi Calm Calm - N/A   Clear
4:55 AM 66.2 °F - 64.4 °F 94% 29.88 in 8.0 mi Calm Calm - N/A   Clear
5:15 AM 66.2 °F - 66.2 °F 100% 29.88 in 10.0 mi Calm Calm - N/A   Clear
5:35 AM 66.2 °F - 64.4 °F 94% 29.89 in 9.0 mi Calm Calm - N/A   Clear
5:55 AM 66.2 °F - 64.4 °F 94% 29.90 in 4.0 mi Calm Calm - N/A   Clear
6:15 AM 64.4 °F - 64.4 °F 100% 29.90 in 8.0 mi Calm Calm - N/A   Clear
6:35 AM 66.2 °F - 64.4 °F 94% 29.91 in 9.0 mi Calm Calm - N/A   Clear
6:55 AM 66.2 °F - 64.4 °F 94% 29.91 in 10.0 mi Calm Calm - N/A   Clear
7:35 AM 66.2 °F - 64.4 °F 94% 29.92 in 6.0 mi Calm Calm - N/A   Clear
7:55 AM 68.0 °F - 64.4 °F 88% 29.92 in 9.0 mi Calm Calm - N/A   Clear
8:15 AM 69.8 °F - 66.2 °F 88% 29.93 in 9.0 mi Calm Calm - N/A   Clear
8:35 AM 71.6 °F - 66.2 °F 83% 29.93 in 10.0 mi Calm Calm - N/A   Clear
8:55 AM 73.4 °F - 66.2 °F 78% 29.93 in 10.0 mi Calm Calm - N/A   Clear
9:15 AM 77.0 °F - 66.2 °F 69% 29.94 in 8.0 mi Calm Calm - N/A   Clear
9:35 AM 78.8 °F - 64.4 °F 61% 29.95 in 10.0 mi Calm Calm - N/A   Clear
10:15 AM 82.4 °F 83.4 °F 62.6 °F 51% 29.95 in 10.0 mi Calm Calm - N/A   Clear
10:35 AM 84.2 °F 85.6 °F 64.4 °F 51% 29.95 in 10.0 mi Calm Calm - N/A   Clear
10:55 AM 86.0 °F 87.3 °F 64.4 °F 48% 29.95 in 10.0 mi Calm Calm - N/A   Clear
11:15 AM 87.8 °F 88.5 °F 62.6 °F 43% 29.95 in 10.0 mi Calm Calm - N/A   Clear
11:35 AM 89.6 °F 89.5 °F 60.8 °F 38% 29.95 in 10.0 mi Variable 3.5 mph - N/A   Clear
12:15 PM 91.4 °F 92.1 °F 62.6 °F 38% 29.93 in 10.0 mi Calm Calm - N/A   Clear
12:35 PM 93.2 °F 93.3 °F 60.8 °F 34% 29.93 in 10.0 mi Variable 4.6 mph - N/A   Clear
12:55 PM 93.2 °F 92.6 °F 59.0 °F 32% 29.92 in 10.0 mi Calm Calm - N/A   Clear
1:15 PM 93.2 °F 92.6 °F 59.0 °F 32% 29.92 in 10.0 mi Variable 4.6 mph - N/A   Clear
1:35 PM 95.0 °F 94.4 °F 59.0 °F 30% 29.91 in 10.0 mi Variable 6.9 mph - N/A   Clear
1:55 PM 95.0 °F 94.4 °F 59.0 °F 30% 29.91 in 10.0 mi Variable 4.6 mph 13.8 mph N/A   Clear
2:15 PM 95.0 °F 94.4 °F 59.0 °F 30% 29.90 in 10.0 mi Calm Calm 13.8 mph N/A   Clear
2:55 PM 96.8 °F 96.2 °F 59.0 °F 28% 29.89 in 10.0 mi WSW 8.1 mph - N/A   Clear
3:15 PM 96.8 °F 95.8 °F 57.2 °F 27% 29.88 in 10.0 mi West 8.1 mph - N/A   Clear
3:35 PM 96.8 °F 96.2 °F 59.0 °F 28% 29.87 in 10.0 mi West 8.1 mph - N/A   Clear
3:55 PM 96.8 °F 95.8 °F 57.2 °F 27% 29.87 in 10.0 mi West 8.1 mph - N/A   Clear
4:15 PM 96.8 °F 95.8 °F 57.2 °F 27% 29.87 in 10.0 mi Variable 6.9 mph - N/A   Clear
4:35 PM 96.8 °F 95.8 °F 57.2 °F 27% 29.86 in 10.0 mi WNW 4.6 mph - N/A   Clear
4:55 PM 96.8 °F 96.2 °F 59.0 °F 28% 29.86 in 10.0 mi WSW 5.8 mph 11.5 mph N/A   Clear
5:15 PM 96.8 °F 96.2 °F 59.0 °F 28% 29.86 in 10.0 mi SW 5.8 mph - N/A   Clear
5:35 PM 96.8 °F 96.2 °F 59.0 °F 28% 29.86 in 10.0 mi West 5.8 mph - N/A   Clear
5:55 PM 96.8 °F 96.2 °F 59.0 °F 28% 29.87 in 10.0 mi WNW 6.9 mph - N/A   Clear
6:15 PM 95.0 °F 94.4 °F 59.0 °F 30% 29.87 in 10.0 mi WNW 3.5 mph - N/A   Clear
6:35 PM 95.0 °F 95.2 °F 60.8 °F 32% 29.87 in 10.0 mi Calm Calm - N/A   Clear
6:55 PM 93.2 °F 93.3 °F 60.8 °F 34% 29.87 in 10.0 mi Calm Calm - N/A   Clear
7:15 PM 91.4 °F 93.2 °F 64.4 °F 41% 29.87 in 10.0 mi Calm Calm - N/A   Clear
7:55 PM 86.0 °F 88.2 °F 66.2 °F 51% 29.87 in 10.0 mi Calm Calm - N/A   Clear
8:35 PM 82.4 °F 84.6 °F 66.2 °F 58% 29.89 in 10.0 mi Calm Calm - N/A   Clear
8:55 PM 80.6 °F 82.7 °F 66.2 °F 61% 29.89 in 10.0 mi Calm Calm - N/A   Scattered Clouds
9:15 PM 78.8 °F - 66.2 °F 65% 29.90 in 10.0 mi Calm Calm - N/A   Partly Cloudy
9:35 PM 78.8 °F - 66.2 °F 65% 29.91 in 10.0 mi Calm Calm - N/A   Clear
10:15 PM 77.0 °F - 66.2 °F 69% 29.91 in 10.0 mi Calm Calm - N/A   Scattered Clouds
10:35 PM 77.0 °F - 66.2 °F 69% 29.92 in 10.0 mi Calm Calm - N/A   Scattered Clouds
11:15 PM 77.0 °F - 66.2 °F 69% 29.92 in 10.0 mi Calm Calm - N/A   Mostly Cloudy
11:35 PM 75.2 °F - 66.2 °F 73% 29.93 in 10.0 mi Calm Calm - N/A   Overcast
11:55 PM 75.2 °F - 66.2 °F 73% 29.93 in 10.0 mi Calm Calm - N/A   Mostly Cloudy